Air Quality Table

TIMESTAMP NO2 O3 PM2.5 TEMP HUM AIRPRES WS WD NO
2022-01-24 07:00 N/A 41.03 µg/m3 4.49 µg/m3 8.31 °C N/A 1,013.55 mbar 1.07 m/s 261.83 Deg N/A
2022-01-24 06:00 N/A 35.8 µg/m3 3.05 µg/m3 8.19 °C N/A 1,013.55 mbar 0.49 m/s 332.37 Deg N/A
2022-01-24 05:00 N/A 46.07 µg/m3 2.07 µg/m3 8.35 °C N/A 1,013.73 mbar 0.4 m/s 320.9 Deg N/A
2022-01-24 04:00 N/A 67.15 µg/m3 1.2 µg/m3 9.49 °C N/A 1,013.89 mbar 0.69 m/s 114.19 Deg N/A
2022-01-24 03:00 N/A 73.42 µg/m3 1.74 µg/m3 9.93 °C N/A 1,014.21 mbar 0.76 m/s 49.71 Deg N/A
2022-01-24 02:00 N/A 77.01 µg/m3 1.99 µg/m3 10.33 °C N/A 1,014.34 mbar 0.94 m/s 306.42 Deg N/A
2022-01-24 01:00 N/A 79.07 µg/m3 2.5 µg/m3 10.64 °C N/A 1,014.41 mbar 1.06 m/s 217.43 Deg N/A
2022-01-24 00:00 N/A 73.58 µg/m3 2.22 µg/m3 10.86 °C N/A 1,014.50 mbar 1.23 m/s 182.68 Deg N/A
2022-01-23 23:00 N/A 64.34 µg/m3 2.58 µg/m3 10.54 °C N/A 1,014.37 mbar 0.53 m/s 308.78 Deg N/A
2022-01-23 22:00 N/A 67.77 µg/m3 3.26 µg/m3 10.6 °C N/A 1,014.51 mbar 0.7 m/s 296.46 Deg N/A
2022-01-23 21:00 N/A 66.53 µg/m3 1.97 µg/m3 10.77 °C N/A 1,014.58 mbar 0.79 m/s 296.62 Deg N/A
2022-01-23 20:00 N/A 66.77 µg/m3 2.82 µg/m3 10.96 °C N/A 1,014.67 mbar 0.8 m/s 295.29 Deg N/A
2022-01-23 19:00 N/A 68.68 µg/m3 3.65 µg/m3 10.88 °C N/A 1,014.72 mbar 0.79 m/s 300.43 Deg N/A
2022-01-23 18:00 N/A 67.85 µg/m3 1.99 µg/m3 11.46 °C N/A 1,014.42 mbar 0.82 m/s 330.56 Deg N/A
2022-01-23 17:00 N/A 79.99 µg/m3 1.33 µg/m3 12.47 °C N/A 1,014.33 mbar 1.36 m/s 180.17 Deg N/A
2022-01-23 16:00 N/A 82.28 µg/m3 0.23 µg/m3 12.71 °C N/A 1,014.47 mbar 1.82 m/s 94.45 Deg N/A
2022-01-23 15:00 N/A 81.94 µg/m3 0.12 µg/m3 13.18 °C N/A 1,014.56 mbar 2.21 m/s 183.15 Deg N/A
2022-01-23 14:00 N/A 82.64 µg/m3 2.12 µg/m3 13.32 °C N/A 1,015.11 mbar 1.93 m/s 103.47 Deg N/A
2022-01-23 13:00 N/A 80.1 µg/m3 2.12 µg/m3 13.39 °C N/A 1,015.88 mbar 1.59 m/s 23.29 Deg N/A
2022-01-23 12:00 N/A 77.05 µg/m3 1.71 µg/m3 13.16 °C N/A 1,016.50 mbar 1.68 m/s 34.27 Deg N/A
2022-01-23 11:00 N/A 73.63 µg/m3 2.61 µg/m3 12.74 °C N/A 1,016.53 mbar 1.51 m/s 93.95 Deg N/A
2022-01-23 10:00 N/A 68.91 µg/m3 1.78 µg/m3 12.28 °C N/A 1,016.07 mbar 1.66 m/s 39.57 Deg N/A

It is to be noted that the data is provisional and subject to quality assurance procedures. For validated data kindly refer your request to contact.air@era.org.mt